Regional Weather Roundup
Issued by NWS Green Bay, WI

Home | Current Version | Previous Version | Text Only | Print | Product List | Glossary On
Versions: 1 2 3 4 5 6 7 8 9 10 11 12 13 14 15 16 17 18 19 20 21 22 23 24 25 26 27 28 29 30 31 32 33 34 35 36 37 38 39 40 41 42 43 44 45 46 47 48 49 50
000
ASUS43 KGRB 271200
RWRGRB

NORTH-CENTRAL AND NORTHEAST WISCONSIN REGIONAL WEATHER ROUNDUP
NATIONAL WEATHER SERVICE GREEN BAY WI
700 AM CDT FRI MAY 27 2016

WIZ005-009-010>012-018-019-271300-
NORTH CENTRAL WISCONSIN

CITY           SKY/WX    TMP DP  RH WIND       PRES   REMARKS
IRONWOOD       CLOUDY    55  55 100 E3        29.86S
MANITOWISH WTR NOT AVBL
ARBOR VITAE    NOT AVBL
EAGLE RIVER    NOT AVBL
LAND O LAKES   NOT AVBL
RHINELANDER    CLOUDY    56  55  97 CALM      29.91F
PHILLIPS       MOSUNNY   54  54 100 CALM      29.88F
ANTIGO         NOT AVBL
TOMAHAWK       NOT AVBL
MERRILL        CLOUDY    53  53 100 CALM      29.90F
$$

WIZ013-073-271300-
NORTHEAST WISCONSIN

CITY           SKY/WX    TMP DP  RH WIND       PRES   REMARKS
IRON MOUNTAIN  PTSUNNY   59  57  93 CALM      29.90R FOG
MARINETTE      SUNNY     59  58  96 CALM      29.90R
$$

WIZ017-030-035>037-045-271300-
CENTRAL WISCONSIN

CITY           SKY/WX    TMP DP  RH WIND       PRES   REMARKS
MEDFORD        NOT AVBL
WAUSAU         SUNNY     61  58  90 E3        29.86F
MOSINEE        MOSUNNY   57  57 100 CALM      29.89S
MARSHFIELD     SUNNY     63  58  83 E6        29.86S
WISC RAPIDS    PTSUNNY   62  58  86 CALM      29.88S
STEVENS POINT  NOT AVBL
WAUPACA        MOSUNNY   63  62  98 CALM      29.89S
SHAWANO        NOT AVBL
CLINTONVILLE   NOT AVBL
WAUTOMA        CLOUDY    62  60  93 CALM      29.90R
$$

WIZ038-039-048-051-271300-
FOX VALLEY

CITY           SKY/WX    TMP DP  RH WIND       PRES   REMARKS
NWS GREEN BAY  SUNNY     65  61  87 CALM      29.88R
APPLETON       MOSUNNY   64  59  82 CALM      29.87S
OSHKOSH        MOSUNNY   66  59  78 CALM      29.86F
FOND DU LAC    CLOUDY    67  61  81 N3        29.86F
$$

WIZ022-050-052-271300-
EAST CENTRAL WISCONSIN

CITY           SKY/WX    TMP DP  RH WIND       PRES   REMARKS
EPHRAIM        FAIR      61  55  82 CALM      29.89R
STURGEON BAY   NOT AVBL
MANITOWOC      NOT AVBL
SHEBOYGAN      MOSUNNY   66  60  81 N5        29.86F
$$

LMZ563-521-522-541>543-271300-
LAKESHORE

STATION/POSITION TIME  TEMP    WIND        PRES    VSBY  WAVE
                       AIR SEA DIR/SP/G                  HT/PER
                 (UTC) (F)     (DEG/KT/KT) (MB)    (MI)  (FT/S)
SHEBOYGAN LKSHOR 1100   65     340/  3/  3 1012.0F
KEWAUNEE LKSHORE 1100           90/  3/  3 1011.6R
NORTHPORT PIER   1100   52     140/  5/  9 1012.2S
N MID LAKE BUOY  1050   48 45  150/  6/  8 1012.4S         1/ 4
SISTER BAY LKSHO 1105   56        CALM       N/A
CHAMBERS ISLAND  1100   59     350/  1/  3 1012.2S
MENOMINEE LKSHOR 1100   56      10/  2/  3 1010.9R
$$



USA.gov is the U.S. government's official web portal to all federal, state and local government web resources and services.